Location: Newark
(9.2300°N, 12.4600°E)
Time: 05:02:09
(UTC+00:00)

LightSail 2 - Visible Passes

Search period start: 09 December 2019 00:00
Search period end: 19 December 2019 00:00
Orbit: 696 x 730 km, 24.0° (Epoch: 08 December)

Date Brightness Start Highest point End Pass type
(mag) Time Alt. Az. Time Alt. Az. Time Alt. Az.
09 Dec 6.6 18:49:08 10° NW 18:51:42 27° NW 18:51:42 27° NW visible
10 Dec 5.9 17:51:10 10° NW 17:55:52 34° NNE 17:57:42 26° ENE visible
10 Dec 7.9 19:36:22 10° WNW 19:36:42 12° WNW 19:36:42 12° WNW visible
11 Dec 5.2 18:38:13 10° WNW 18:42:48 67° NW 18:42:48 67° NW visible
12 Dec 5.3 17:40:09 10° NW 17:45:14 55° NNE 17:49:01 17° E visible
12 Dec 7.3 19:25:54 10° W 19:28:02 23° W 19:28:02 23° W visible
13 Dec 5.5 18:27:30 10° WNW 18:32:37 61° SSW 18:34:21 38° SE visible
14 Dec 5.2 17:29:15 10° WNW 17:34:28 87° SSW 17:39:38 10° ESE visible
14 Dec 7.1 19:15:51 10° WSW 19:19:49 23° SSW 19:19:49 23° SSW visible
15 Dec 6.6 18:17:06 10° W 18:21:46 34° SSW 18:26:19 10° SE visible
16 Dec 6.1 17:18:34 10° W 17:23:36 49° SSW 17:28:36 10° SE visible
16 Dec 7.8 19:06:45 10° SW 19:09:07 13° SSW 19:11:30 10° S visible
17 Dec 7.6 18:07:14 10° WSW 18:10:54 19° SSW 18:14:33 10° SSE visible
18 Dec 7.4 04:47:18 10° SSW 04:51:20 23° SSE 04:55:22 10° ESE visible
